NULL Weather Reports


Display with metric or nautical units.
time (UTC)temp
F
wind
direction
speed
MPH
gust
MPH
rain 1hr
in
rain 24hr
in
rain mn
in
humidity
%
barometer
mb
20260506214535 59 345 4.0 11.0 0.00 0.03 0.02 33 1018.8
20260506214518 74 173 0.0 0.0 0.00 0.00 0.00 54 1015.7
20260506213034 58 274 5.0 14.0 0.00 0.03 0.02 34 1019.0
20260506213016 73 150 0.0 0.0 0.00 0.00 0.00 56 1015.8
20260506211533 59 335 6.0 12.0 0.00 0.03 0.02 32 1019.1
20260506211514 73 151 0.0 0.0 0.00 0.00 0.00 56 1016.1
20260506210037 59 359 7.0 20.0 0.00 0.03 0.02 33 1019.6
20260506210014 73 136 0.0 0.0 0.00 0.00 0.00 57 1016.1
20260506204547 59 338 7.0 13.0 0.00 0.03 0.02 35 1019.8
20260506204506 73 135 0.0 0.0 0.00 0.00 0.00 57 1016.4
20260506203032 59 13 5.0 13.0 0.00 0.03 0.02 33 1020.0
20260506203002 73 134 0.0 0.0 0.00 0.00 0.00 58 1016.4
20260506201534 58 55 3.0 14.0 0.00 0.03 0.02 34 1020.0
20260506201502 72 141 0.0 0.0 0.00 0.00 0.00 59 1016.7
20260506200100 72 168 0.0 0.0 0.00 0.00 0.00 59 1016.8
20260506200028 58 8 3.0 15.0 0.00 0.03 0.02 34 1020.2
20260506194605 71 170 0.0 7.0 0.00 0.00 0.00 61 1016.9
20260506194527 57 56 4.0 12.0 0.00 0.03 0.02 37 1020.2
20260506193059 71 124 0.0 3.0 0.00 0.00 0.00 61 1017.0
20260506193025 57 359 6.0 12.0 0.00 0.03 0.02 35 1020.4
20260506191555 71 166 0.0 7.0 0.00 0.00 0.00 61 1017.2
20260506191526 57 359 9.0 17.0 0.00 0.03 0.02 34 1020.3
20260506190053 69 146 1.0 7.0 0.00 0.00 0.00 65 1017.3
20260506190023 57 350 5.0 14.0 0.00 0.03 0.02 36 1020.5
20260506184556 70 142 0.0 1.0 0.00 0.00 0.00 64 1017.5
20260506184522 56 359 6.0 11.0 0.00 0.03 0.02 36 1020.5
20260506183100 71 132 0.0 2.0 0.00 0.00 0.00 62 1017.6
20260506183021 56 359 6.0 13.0 0.00 0.03 0.02 36 1020.8
20260506181551 71 157 0.0 0.0 0.00 0.00 0.00 62 1017.8
20260506181525 55 359 3.0 11.0 0.00 0.03 0.02 36 1021.1
20260506180051 70 155 0.0 0.0 0.00 0.00 0.00 61 1017.8
20260506180017 55 359 5.0 12.0 0.00 0.03 0.02 37 1021.1
20260506174548 70 155 0.0 0.0 0.00 0.00 0.00 61 1017.8
20260506174517 54 52 4.0 14.0 0.00 0.03 0.02 38 1021.3
20260506173048 70 140 0.0 3.0 0.00 0.00 0.00 61 1017.8
20260506173015 54 359 10.0 15.0 0.00 0.03 0.02 36 1021.4
20260506171553 69 142 0.0 0.0 0.00 0.00 0.00 62 1018.0
20260506171525 54 328 4.0 16.0 0.00 0.03 0.02 38 1021.3
20260506170040 68 112 0.0 0.0 0.00 0.00 0.00 64 1017.9
20260506170014 54 359 4.0 13.0 0.00 0.03 0.02 40 1021.4
20260506164536 67 117 0.0 1.0 0.00 0.00 0.00 65 1017.7
20260506164514 54 359 2.0 15.0 0.00 0.03 0.02 41 1021.5
20260506163040 66 144 0.0 4.0 0.00 0.00 0.00 68 1017.9
20260506163011 54 359 7.0 13.0 0.00 0.03 0.02 39 1021.4
20260506161529 64 128 0.0 4.0 0.00 0.00 0.00 70 1017.8
20260506161510 54 359 6.0 15.0 0.00 0.03 0.02 40 1021.4
20260506160023 63 143 0.0 6.0 0.00 0.00 0.00 74 1017.8
20260506160006 54 359 10.0 18.0 0.00 0.03 0.02 41 1021.1
20260506154520 62 140 0.0 0.0 0.00 0.00 0.00 76 1017.8
20260506154505 53 359 8.0 13.0 0.00 0.04 0.02 42 1020.8
20260506153018 62 154 0.0 0.0 0.00 0.00 0.00 76 1017.9
20260506153001 53 359 4.0 17.0 0.00 0.04 0.02 47 1020.9
20260506151610 52 39 7.0 15.0 0.00 0.04 0.02 43 1020.9
20260506151529 61 154 0.0 0.0 0.00 0.00 0.00 77 1017.8
20260506150057 52 33 6.0 12.0 0.00 0.04 0.02 51 1020.9
20260506150012 60 155 0.0 1.0 0.00 0.00 0.00 77 1017.9
20260506144603 51 37 5.0 10.0 0.00 0.13 0.02 54 1020.9
20260506144510 59 155 0.0 1.0 0.00 0.00 0.00 79 1018.0
20260506143055 50 343 5.0 9.0 0.00 0.13 0.02 54 1020.9
20260506143007 58 155 0.0 1.0 0.00 0.00 0.00 80 1017.8
20260506141549 50 354 5.0 9.0 0.00 0.13 0.02 56 1020.7
20260506141506 56 155 0.0 1.0 0.00 0.00 0.00 82 1017.7
20260506140053 49 290 4.0 8.0 0.00 0.13 0.02 59 1020.6
20260506140005 55 155 0.0 0.0 0.00 0.00 0.00 83 1017.5
20260506134544 49 38 3.0 6.0 0.00 0.25 0.02 61 1020.3
20260506134504 54 155 0.0 0.0 0.00 0.00 0.00 85 1017.5
20260506133043 49 322 4.0 8.0 0.00 0.25 0.02 60 1020.2
20260506133003 53 155 0.0 0.0 0.00 0.00 0.00 87 1017.4
20260506131601 53 155 0.0 0.0 0.00 0.00 0.00 87 1017.2
20260506131539 49 345 4.0 9.0 0.00 0.25 0.02 62 1019.8
20260506130100 53 155 0.0 0.0 0.00 0.00 0.00 87 1017.1
20260506130037 48 306 3.0 8.0 0.00 0.25 0.02 68 1019.5
20260506124558 53 155 0.0 0.0 0.00 0.00 0.00 86 1016.8
20260506124535 47 337 1.0 5.0 0.00 0.30 0.02 75 1019.5
20260506123056 54 155 0.0 0.0 0.00 0.00 0.00 86 1016.6
20260506123033 46 354 2.0 4.0 0.00 0.30 0.02 82 1018.9
20260506121554 54 155 0.0 0.0 0.00 0.00 0.00 86 1016.6
20260506121531 45 214 0.0 2.0 0.00 0.30 0.02 86 1018.8
20260506120053 54 155 0.0 0.0 0.00 0.00 0.00 86 1016.7
20260506120032 44 204 0.0 0.0 0.00 0.30 0.02 86 1018.4
20260506114558 54 155 0.0 0.0 0.00 0.00 0.00 86 1016.6
20260506114539 45 359 0.0 0.0 0.00 0.31 0.02 85 1018.0
20260506113057 55 155 0.0 0.0 0.00 0.00 0.00 86 1016.5
20260506113024 45 214 0.0 0.0 0.00 0.31 0.02 85 1017.8
20260506111551 55 155 0.0 0.0 0.00 0.00 0.00 87 1016.5
20260506111523 46 359 0.0 1.0 0.00 0.31 0.02 85 1017.9
20260506110046 55 155 0.0 0.0 0.00 0.00 0.00 87 1016.6
20260506110024 46 216 0.0 1.0 0.00 0.31 0.02 84 1017.9
20260506104553 56 155 0.0 0.0 0.00 0.01 0.00 87 1016.7
20260506104522 46 213 1.0 4.0 0.00 0.31 0.02 83 1018.1
20260506103043 56 155 0.0 0.0 0.00 0.01 0.00 87 1016.6
20260506103021 46 218 1.0 4.0 0.00 0.31 0.02 82 1018.0
20260506101549 56 155 0.0 0.0 0.00 0.01 0.00 88 1016.7
20260506101537 46 246 2.0 4.0 0.00 0.31 0.02 85 1018.0
20260506100040 56 155 0.0 0.0 0.00 0.01 0.00 88 1016.6
20260506100018 46 291 0.0 5.0 0.00 0.31 0.02 86 1017.6
20260506094539 57 155 0.0 0.0 0.00 0.11 0.00 88 1016.7
20260506094517 46 197 3.0 6.0 0.00 0.31 0.02 85 1017.0
20260506093038 57 155 0.0 0.0 0.00 0.11 0.00 89 1016.7
20260506093015 46 205 1.0 3.0 0.00 0.31 0.02 85 1017.1
20260506091537 57 155 0.0 0.0 0.00 0.11 0.00 89 1016.7
20260506091519 46 216 0.0 4.0 0.00 0.31 0.02 85 1017.2
20260506090036 57 155 0.0 0.0 0.00 0.11 0.00 88 1016.9
20260506090012 46 229 0.0 1.0 0.00 0.31 0.02 85 1017.2
20260506084540 57 155 0.0 0.0 0.00 0.11 0.00 87 1016.8
20260506084518 46 229 1.0 2.0 0.00 0.31 0.02 85 1017.2
20260506083033 57 155 0.0 0.0 0.00 0.11 0.00 87 1016.9
20260506083010 46 229 1.0 3.0 0.00 0.31 0.02 85 1017.2
20260506081530 57 155 0.0 0.0 0.00 0.11 0.00 87 1017.0
20260506081509 46 212 0.0 0.0 0.00 0.31 0.02 85 1017.0
20260506073025 58 154 0.0 0.0 0.00 0.11 0.00 85 1017.0
20260506073007 46 214 2.0 3.0 0.00 0.32 0.02 84 1016.3
20260506071523 58 154 0.0 0.0 0.00 0.11 0.00 85 1017.1
20260506071513 46 203 0.0 1.0 0.00 0.32 0.02 82 1016.1
20260506061557 48 191 0.0 2.0 0.01 0.32 0.02 75 1016.2
20260506061518 59 154 0.0 0.0 0.00 0.11 0.11 83 1016.7
20260506044542 51 314 11.0 22.0 0.00 0.28 0.28 64 1017.0
20260506044509 61 159 0.0 0.0 0.00 0.11 0.11 79 1015.8
20260506043039 51 324 2.0 11.0 0.00 0.28 0.28 62 1016.5
20260506043009 61 144 0.0 0.0 0.00 0.11 0.11 78 1015.6
20260506041548 50 213 2.0 5.0 0.00 0.28 0.28 75 1016.3
20260506041508 61 147 0.0 0.0 0.00 0.11 0.11 77 1015.6
20260506040038 51 268 1.0 3.0 0.00 0.28 0.28 72 1015.8
20260506040005 61 148 0.0 0.0 0.00 0.11 0.11 76 1015.3
20260506034535 51 232 1.0 3.0 0.00 0.28 0.28 68 1015.8
20260506034503 61 150 0.0 5.0 0.00 0.11 0.11 77 1015.1
20260506033033 51 311 0.0 0.0 0.00 0.28 0.28 64 1015.3
20260506033002 61 146 1.0 5.0 0.00 0.11 0.11 75 1015.0
20260506031530 51 310 0.0 3.0 0.00 0.28 0.28 62 1014.7
20260506031501 62 157 0.0 5.0 0.00 0.11 0.11 75 1014.7
20260506030032 51 320 0.0 3.0 0.00 0.28 0.28 64 1014.5
20260506024601 63 143 0.0 0.0 0.00 0.11 0.11 70 1014.1
20260506024530 52 8 1.0 5.0 0.00 0.28 0.28 63 1014.3
20260506023101 63 150 0.0 1.0 0.00 0.11 0.11 68 1013.9
20260506023026 52 347 3.0 9.0 0.00 0.28 0.28 60 1014.2
20260506021701 64 142 0.0 0.0 0.00 0.11 0.11 66 1013.9
20260506021525 52 60 4.0 10.0 0.00 0.28 0.28 60 1014.1
20260506020058 64 159 0.0 0.0 0.00 0.11 0.11 67 1013.7
20260506020025 53 338 5.0 12.0 0.00 0.28 0.28 58 1013.8
20260506014558 65 154 0.0 2.0 0.00 0.11 0.11 64 1013.6
20260506014532 52 354 2.0 6.0 0.00 0.28 0.28 61 1013.5
20260506013104 65 140 0.0 7.0 0.00 0.11 0.11 64 1013.3
20260506013028 52 325 1.0 4.0 0.00 0.28 0.28 60 1013.4
20260506011556 66 207 0.0 7.0 0.00 0.11 0.11 64 1013.4
20260506011525 53 339 1.0 4.0 0.00 0.28 0.28 62 1013.1
20260506010115 66 157 0.0 1.0 0.00 0.11 0.11 63 1013.4
20260506010027 53 339 3.0 6.0 0.00 0.28 0.28 57 1012.9
20260506004555 66 150 0.0 1.0 0.00 0.11 0.11 60 1013.4
20260506004534 54 337 3.0 8.0 0.00 0.28 0.28 54 1012.9
20260506003056 66 162 0.0 1.0 0.00 0.11 0.11 59 1013.3
20260506003020 54 337 6.0 10.0 0.00 0.28 0.28 54 1012.8
20260506001558 67 156 0.0 7.0 0.00 0.11 0.11 56 1013.1
20260506001520 54 347 4.0 8.0 0.00 0.28 0.28 55 1012.9
20260506000055 68 238 0.0 0.0 0.00 0.11 0.11 56 1013.2
20260506000023 54 354 5.0 11.0 0.00 0.28 0.28 61 1012.5
20260505234607 68 167 0.0 0.0 0.00 0.11 0.11 51 1013.3
20260505234520 54 315 4.0 8.0 0.00 0.28 0.28 71 1012.6
20260505233052 68 137 0.0 5.0 0.00 0.11 0.11 51 1013.4
20260505233017 54 280 1.0 3.0 0.00 0.28 0.28 73 1012.6
20260505231553 67 152 0.0 3.0 0.00 0.11 0.11 55 1013.3
20260505231517 55 224 0.0 4.0 0.00 0.28 0.28 72 1012.7
20260505230049 67 142 0.0 0.0 0.00 0.11 0.11 55 1013.4
20260505230017 55 249 2.0 4.0 0.00 0.28 0.28 72 1012.8
20260505224549 68 160 0.0 10.0 0.00 0.11 0.11 55 1013.5
20260505224524 55 212 1.0 3.0 0.00 0.28 0.28 70 1012.4
20260505223049 68 184 0.0 1.0 0.00 0.11 0.11 55 1013.6
20260505223018 54 212 0.0 4.0 0.00 0.28 0.28 71 1012.4
20260505221548 68 148 0.0 5.0 0.00 0.11 0.11 56 1013.8
20260505221515 54 257 0.0 3.0 0.00 0.28 0.28 71 1012.6
20260505220049 68 156 0.0 1.0 0.00 0.11 0.11 53 1013.8
20260505220026 54 203 1.0 4.0 0.00 0.28 0.28 71 1012.5